Wetterdaten: Montag, 19.08.2013
Datum Zeit Temperatur Luftfeuchte Luftdruck Regen Wind Richtung Richtung Taupunkt Windchill Windben
19.08.2013 00:00 15,7 C 94 % 1021,3 hPa 0,0 l/m 0,5 km/h (0 Bft) W 270 14,7 C 16,0 C 0,0 km/h (0 Bft)
19.08.2013 00:05 15,7 C 94 % 1021,6 hPa 0,0 l/m 0,5 km/h (0 Bft) S-SW 202 14,7 C 16,0 C 3,7 km/h (1 Bft)
19.08.2013 00:10 15,8 C 94 % 1021,6 hPa 0,0 l/m 3,4 km/h (1 Bft) S 180 14,8 C 16,2 C 10,8 km/h (2 Bft)
19.08.2013 00:15 15,8 C 94 % 1021,6 hPa 0,0 l/m 4,7 km/h (1 Bft) NO 45 14,8 C 16,2 C 2,4 km/h (1 Bft)
19.08.2013 00:20 15,8 C 94 % 1021,6 hPa 0,0 l/m 2,9 km/h (1 Bft) NO 45 14,8 C 16,1 C 5,3 km/h (1 Bft)
19.08.2013 00:25 15,8 C 94 % 1021,7 hPa 0,0 l/m 2,1 km/h (1 Bft) O-NO 67 14,8 C 16,1 C 5,3 km/h (1 Bft)
19.08.2013 00:30 15,8 C 94 % 1021,7 hPa 0,0 l/m 1,9 km/h (1 Bft) W-SW 247 14,8 C 16,1 C 2,4 km/h (1 Bft)
19.08.2013 00:35 15,8 C 94 % 1021,7 hPa 0,7 l/m 2,7 km/h (1 Bft) S-SW 202 14,8 C 16,0 C 4,5 km/h (1 Bft)
19.08.2013 00:40 15,6 C 94 % 1021,7 hPa 0,0 l/m 3,1 km/h (1 Bft) SO 135 14,6 C 15,8 C 0,0 km/h (0 Bft)
19.08.2013 00:45 15,5 C 94 % 1021,6 hPa 0,0 l/m 2,3 km/h (1 Bft) S 180 14,5 C 15,6 C 3,9 km/h (1 Bft)
19.08.2013 00:50 15,4 C 94 % 1021,6 hPa 0,7 l/m 1,3 km/h (1 Bft) NO 45 14,4 C 15,5 C 4,2 km/h (1 Bft)
19.08.2013 00:55 15,3 C 94 % 1021,6 hPa 0,0 l/m 1,4 km/h (1 Bft) N-NO 22 14,3 C 15,4 C 0,0 km/h (0 Bft)
19.08.2013 01:00 15,3 C 94 % 1021,6 hPa 0,0 l/m 1,3 km/h (1 Bft) NO 45 14,3 C 15,4 C 0,0 km/h (0 Bft)
19.08.2013 01:05 15,3 C 94 % 1021,4 hPa 0,7 l/m 0,5 km/h (0 Bft) O-SO 112 14,3 C 15,4 C 0,0 km/h (0 Bft)
19.08.2013 01:10 15,2 C 94 % 1021,4 hPa 0,7 l/m 0,2 km/h (0 Bft) N-NO 22 14,2 C 15,4 C 0,0 km/h (0 Bft)
19.08.2013 01:15 15,2 C 94 % 1021,4 hPa 0,0 l/m 0,2 km/h (0 Bft) N-NO 22 14,2 C 15,3 C 0,0 km/h (0 Bft)
19.08.2013 01:20 15,2 C 94 % 1021,4 hPa 0,0 l/m 0,3 km/h (0 Bft) W-NW 292 14,2 C 15,2 C 0,0 km/h (0 Bft)
19.08.2013 01:25 15,2 C 94 % 1021,1 hPa 0,0 l/m 0,5 km/h (0 Bft) NO 45 14,2 C 15,2 C 3,7 km/h (1 Bft)
19.08.2013 01:30 15,2 C 94 % 1021,1 hPa 0,0 l/m 0,3 km/h (0 Bft) S-SW 202 14,2 C 15,2 C 0,0 km/h (0 Bft)
19.08.2013 01:35 15,3 C 94 % 1021,1 hPa 0,0 l/m 0,3 km/h (0 Bft) N 360 14,3 C 15,3 C 0,0 km/h (0 Bft)
19.08.2013 01:40 15,3 C 94 % 1021,1 hPa 0,0 l/m 0,3 km/h (0 Bft) W-SW 247 14,3 C 15,3 C 0,0 km/h (0 Bft)
19.08.2013 01:45 15,3 C 94 % 1021,1 hPa 0,0 l/m 0,3 km/h (0 Bft) W-SW 247 14,3 C 15,3 C 0,0 km/h (0 Bft)
19.08.2013 01:50 15,3 C 94 % 1021,1 hPa 0,0 l/m 1,0 km/h (0 Bft) O 90 14,3 C 15,4 C 1,8 km/h (1 Bft)
19.08.2013 01:55 15,3 C 94 % 1021,1 hPa 0,0 l/m 1,1 km/h (1 Bft) N-NO 22 14,3 C 15,4 C 0,0 km/h (0 Bft)
19.08.2013 02:00 15,4 C 94 % 1021,1 hPa 0,0 l/m 0,6 km/h (0 Bft) W-NW 292 14,4 C 15,4 C 0,0 km/h (0 Bft)
19.08.2013 02:05 15,4 C 94 % 1020,7 hPa 0,0 l/m 0,8 km/h (0 Bft) W-SW 247 14,4 C 15,4 C 0,0 km/h (0 Bft)
19.08.2013 02:10 15,4 C 94 % 1020,7 hPa 0,0 l/m 0,8 km/h (0 Bft) O-NO 67 14,4 C 15,4 C 1,9 km/h (1 Bft)
19.08.2013 02:15 15,4 C 94 % 1020,7 hPa 0,0 l/m 1,0 km/h (0 Bft) O 90 14,4 C 15,4 C 0,0 km/h (0 Bft)
19.08.2013 02:20 15,3 C 94 % 1020,7 hPa 0,0 l/m 0,8 km/h (0 Bft) W-SW 247 14,3 C 15,4 C 3,4 km/h (1 Bft)
19.08.2013 02:25 15,3 C 94 % 1020,7 hPa 0,0 l/m 0,6 km/h (0 Bft) W 270 14,3 C 15,4 C 1,9 km/h (1 Bft)
19.08.2013 02:30 15,4 C 94 % 1020,7 hPa 0,0 l/m 0,3 km/h (0 Bft) SW 225 14,4 C 15,4 C 0,0 km/h (0 Bft)
19.08.2013 02:35 15,4 C 94 % 1020,7 hPa 0,0 l/m 0,3 km/h (0 Bft) S 180 14,4 C 15,4 C 0,0 km/h (0 Bft)
19.08.2013 02:40 15,4 C 94 % 1020,7 hPa 0,0 l/m 0,2 km/h (0 Bft) W-SW 247 14,4 C 15,4 C 0,0 km/h (0 Bft)
19.08.2013 02:45 15,3 C 94 % 1020,6 hPa 0,0 l/m 0,3 km/h (0 Bft) W-SW 247 14,3 C 15,4 C 0,0 km/h (0 Bft)
19.08.2013 02:50 15,3 C 94 % 1020,6 hPa 0,0 l/m 0,2 km/h (0 Bft) N 360 14,3 C 15,3 C 0,0 km/h (0 Bft)
19.08.2013 02:55 15,3 C 95 % 1020,6 hPa 0,0 l/m 0,3 km/h (0 Bft) W-SW 247 14,5 C 15,3 C 1,9 km/h (1 Bft)
19.08.2013 03:00 15,2 C 95 % 1020,6 hPa 0,0 l/m 0,6 km/h (0 Bft) N-NW 337 14,4 C 15,3 C 3,7 km/h (1 Bft)
19.08.2013 03:05 15,2 C 95 % 1020,4 hPa 0,0 l/m 0,8 km/h (0 Bft) W 270 14,4 C 15,3 C 1,9 km/h (1 Bft)
19.08.2013 03:10 15,2 C 95 % 1020,4 hPa 0,0 l/m 1,0 km/h (0 Bft) W 270 14,4 C 15,2 C 0,0 km/h (0 Bft)
19.08.2013 03:15 15,2 C 95 % 1020,4 hPa 0,0 l/m 1,0 km/h (0 Bft) O-NO 67 14,4 C 15,2 C 3,4 km/h (1 Bft)
19.08.2013 03:20 15,1 C 95 % 1020,4 hPa 0,0 l/m 0,6 km/h (0 Bft) NO 45 14,3 C 15,2 C 1,8 km/h (1 Bft)
19.08.2013 03:25 15,1 C 95 % 1020,2 hPa 0,0 l/m 0,6 km/h (0 Bft) NO 45 14,3 C 15,1 C 0,0 km/h (0 Bft)
19.08.2013 03:30 15,0 C 95 % 1020,2 hPa 0,0 l/m 0,3 km/h (0 Bft) W-SW 247 14,2 C 15,0 C 0,0 km/h (0 Bft)
19.08.2013 03:35 14,9 C 95 % 1020,2 hPa 0,0 l/m 0,0 km/h (0 Bft) NO 45 14,1 C 15,0 C 0,0 km/h (0 Bft)
19.08.2013 03:40 14,9 C 95 % 1020,2 hPa 0,0 l/m 0,6 km/h (0 Bft) O 90 14,1 C 14,9 C 2,9 km/h (1 Bft)
19.08.2013 03:45 14,9 C 95 % 1020,3 hPa 0,0 l/m 0,8 km/h (0 Bft) N 360 14,1 C 14,9 C 0,0 km/h (0 Bft)
19.08.2013 03:50 14,9 C 95 % 1020,3 hPa 0,0 l/m 0,8 km/h (0 Bft) O-NO 67 14,1 C 14,8 C 1,8 km/h (1 Bft)
19.08.2013 03:55 14,9 C 95 % 1020,3 hPa 0,0 l/m 0,5 km/h (0 Bft) O 90 14,1 C 14,8 C 0,0 km/h (0 Bft)
19.08.2013 04:00 14,8 C 95 % 1020,3 hPa 0,0 l/m 0,2 km/h (0 Bft) O-SO 112 14,0 C 14,8 C 0,0 km/h (0 Bft)
19.08.2013 04:05 14,9 C 95 % 1020,0 hPa 0,0 l/m 0,2 km/h (0 Bft) N 360 14,1 C 14,8 C 0,0 km/h (0 Bft)
19.08.2013 04:10 14,8 C 95 % 1020,0 hPa 0,0 l/m 0,2 km/h (0 Bft) N 360 14,0 C 14,8 C 0,0 km/h (0 Bft)
19.08.2013 04:15 14,8 C 95 % 1020,0 hPa 0,0 l/m 0,0 km/h (0 Bft) W 270 14,0 C 14,7 C 0,0 km/h (0 Bft)
19.08.2013 04:20 14,8 C 95 % 1020,0 hPa 0,0 l/m 0,2 km/h (0 Bft) NO 45 14,0 C 14,8 C 0,0 km/h (0 Bft)
19.08.2013 04:25 14,9 C 95 % 1020,1 hPa 0,0 l/m 0,2 km/h (0 Bft) N-NO 22 14,1 C 14,8 C 0,0 km/h (0 Bft)
19.08.2013 04:30 14,9 C 95 % 1020,1 hPa 0,0 l/m 0,3 km/h (0 Bft) N-NW 337 14,1 C 14,9 C 0,0 km/h (0 Bft)
19.08.2013 04:35 14,8 C 95 % 1020,1 hPa 0,0 l/m 0,3 km/h (0 Bft) NO 45 14,0 C 14,8 C 0,0 km/h (0 Bft)
19.08.2013 04:40 14,7 C 95 % 1020,1 hPa 0,0 l/m 0,0 km/h (0 Bft) S 180 13,9 C 14,7 C 0,0 km/h (0 Bft)
19.08.2013 04:45 14,6 C 95 % 1020,1 hPa 0,0 l/m 0,3 km/h (0 Bft) SO 135 13,8 C 14,7 C 3,7 km/h (1 Bft)
19.08.2013 04:50 14,6 C 95 % 1020,1 hPa 0,0 l/m 1,8 km/h (1 Bft) S-SO 157 13,8 C 14,6 C 3,1 km/h (1 Bft)
19.08.2013 04:55 14,6 C 95 % 1020,1 hPa 0,0 l/m 2,1 km/h (1 Bft) S-SW 202 13,8 C 14,6 C 0,0 km/h (0 Bft)
19.08.2013 05:00 14,5 C 95 % 1020,1 hPa 0,0 l/m 0,6 km/h (0 Bft) O-SO 112 13,7 C 14,6 C 0,0 km/h (0 Bft)
19.08.2013 05:05 14,5 C 95 % 1020,0 hPa 0,0 l/m 0,2 km/h (0 Bft) O-NO 67 13,7 C 14,5 C 0,0 km/h (0 Bft)
19.08.2013 05:10 14,5 C 95 % 1020,0 hPa 0,0 l/m 0,2 km/h (0 Bft) O 90 13,7 C 14,5 C 0,0 km/h (0 Bft)
19.08.2013 05:15 14,5 C 95 % 1020,0 hPa 0,0 l/m 0,0 km/h (0 Bft) O 90 13,7 C 14,5 C 0,0 km/h (0 Bft)
19.08.2013 05:20 14,6 C 95 % 1020,0 hPa 0,0 l/m 0,3 km/h (0 Bft) O-NO 67 13,8 C 14,5 C 2,3 km/h (1 Bft)
19.08.2013 05:25 14,6 C 95 % 1020,1 hPa 0,0 l/m 0,5 km/h (0 Bft) O-SO 112 13,8 C 14,5 C 2,7 km/h (1 Bft)
19.08.2013 05:30 14,5 C 95 % 1020,1 hPa 0,0 l/m 1,6 km/h (1 Bft) O-NO 67 13,7 C 14,5 C 2,7 km/h (1 Bft)
19.08.2013 05:35 14,5 C 95 % 1020,1 hPa 0,0 l/m 2,1 km/h (1 Bft) NO 45 13,7 C 14,5 C 2,4 km/h (1 Bft)
19.08.2013 05:40 14,5 C 95 % 1020,1 hPa 0,0 l/m 1,9 km/h (1 Bft) O-NO 67 13,7 C 14,5 C 2,9 km/h (1 Bft)
19.08.2013 05:45 14,5 C 95 % 1019,9 hPa 0,0 l/m 1,4 km/h (1 Bft) O-NO 67 13,7 C 14,5 C 0,0 km/h (0 Bft)
19.08.2013 05:50 14,5 C 95 % 1019,9 hPa 0,0 l/m 0,5 km/h (0 Bft) O 90 13,7 C 14,5 C 0,0 km/h (0 Bft)
19.08.2013 05:55 14,5 C 95 % 1019,9 hPa 0,0 l/m 0,0 km/h (0 Bft) SO 135 13,7 C 14,5 C 0,0 km/h (0 Bft)
19.08.2013 06:00 14,5 C 95 % 1019,9 hPa 0,0 l/m 0,3 km/h (0 Bft) S 180 13,7 C 14,5 C 1,8 km/h (1 Bft)
19.08.2013 06:05 14,6 C 95 % 1020,1 hPa 0,0 l/m 0,6 km/h (0 Bft) S 180 13,8 C 14,6 C 3,2 km/h (1 Bft)
19.08.2013 06:10 14,5 C 95 % 1020,1 hPa 0,0 l/m 1,4 km/h (1 Bft) S 180 13,7 C 14,6 C 2,1 km/h (1 Bft)
19.08.2013 06:15 14,5 C 95 % 1020,1 hPa 0,0 l/m 1,3 km/h (1 Bft) SO 135 13,7 C 14,6 C 0,0 km/h (0 Bft)
19.08.2013 06:20 14,5 C 95 % 1020,1 hPa 0,0 l/m 0,3 km/h (0 Bft) SO 135 13,7 C 14,5 C 0,0 km/h (0 Bft)
19.08.2013 06:25 14,5 C 95 % 1019,9 hPa 0,0 l/m 0,2 km/h (0 Bft) S-SO 157 13,7 C 14,5 C 0,0 km/h (0 Bft)
19.08.2013 06:30 14,6 C 95 % 1019,9 hPa 0,0 l/m 0,3 km/h (0 Bft) SO 135 13,8 C 14,6 C 0,0 km/h (0 Bft)
19.08.2013 06:35 14,6 C 95 % 1019,9 hPa 0,0 l/m 0,2 km/h (0 Bft) O 90 13,8 C 14,6 C 0,0 km/h (0 Bft)
19.08.2013 06:40 14,6 C 95 % 1019,9 hPa 0,0 l/m 0,2 km/h (0 Bft) O 90 13,8 C 14,6 C 2,4 km/h (1 Bft)
19.08.2013 06:45 14,6 C 95 % 1019,7 hPa 0,0 l/m 0,8 km/h (0 Bft) O-NO 67 13,8 C 14,6 C 1,6 km/h (1 Bft)
19.08.2013 06:50 14,6 C 95 % 1019,7 hPa 0,0 l/m 0,8 km/h (0 Bft) O 90 13,8 C 14,6 C 0,0 km/h (0 Bft)
19.08.2013 06:55 14,7 C 95 % 1019,7 hPa 0,0 l/m 0,3 km/h (0 Bft) SO 135 13,9 C 14,7 C 0,0 km/h (0 Bft)
19.08.2013 07:00 14,7 C 95 % 1019,7 hPa 0,0 l/m 0,2 km/h (0 Bft) O-SO 112 13,9 C 14,7 C 0,0 km/h (0 Bft)
19.08.2013 07:05 14,8 C 95 % 1019,6 hPa 0,0 l/m 0,0 km/h (0 Bft) W-SW 247 14,0 C 14,8 C 0,0 km/h (0 Bft)
19.08.2013 07:10 14,9 C 95 % 1019,6 hPa 0,0 l/m 0,3 km/h (0 Bft) N-NO 22 14,1 C 14,8 C 2,3 km/h (1 Bft)
19.08.2013 07:15 14,9 C 95 % 1019,6 hPa 0,0 l/m 1,1 km/h (1 Bft) N 360 14,1 C 14,9 C 0,0 km/h (0 Bft)
19.08.2013 07:20 15,1 C 95 % 1019,6 hPa 0,0 l/m 1,3 km/h (1 Bft) SW 225 14,3 C 15,0 C 0,0 km/h (0 Bft)
19.08.2013 07:25 15,1 C 95 % 1019,7 hPa 0,0 l/m 0,2 km/h (0 Bft) SO 135 14,3 C 15,2 C 0,0 km/h (0 Bft)
19.08.2013 07:30 15,2 C 95 % 1019,7 hPa 0,0 l/m 0,3 km/h (0 Bft) S-SW 202 14,4 C 15,3 C 0,0 km/h (0 Bft)
19.08.2013 07:35 15,2 C 95 % 1019,7 hPa 0,0 l/m 0,3 km/h (0 Bft) S 180 14,4 C 15,4 C 0,0 km/h (0 Bft)
19.08.2013 07:40 15,2 C 95 % 1019,7 hPa 0,0 l/m 0,2 km/h (0 Bft) W 270 14,4 C 15,5 C 0,0 km/h (0 Bft)
19.08.2013 07:45 15,3 C 95 % 1019,5 hPa 0,0 l/m 0,2 km/h (0 Bft) N-NO 22 14,5 C 15,5 C 0,0 km/h (0 Bft)
19.08.2013 07:50 15,3 C 95 % 1019,5 hPa 0,0 l/m 0,3 km/h (0 Bft) S 180 14,5 C 15,6 C 0,0 km/h (0 Bft)
19.08.2013 07:55 15,4 C 95 % 1019,5 hPa 0,0 l/m 0,3 km/h (0 Bft) O 90 14,6 C 15,8 C 1,8 km/h (1 Bft)
19.08.2013 08:00 15,4 C 95 % 1019,5 hPa 0,0 l/m 0,2 km/h (0 Bft) N-NO 22 14,6 C 15,8 C 0,0 km/h (0 Bft)
19.08.2013 08:05 15,5 C 95 % 1019,6 hPa 0,0 l/m 0,2 km/h (0 Bft) O 90 14,7 C 15,9 C 0,0 km/h (0 Bft)
19.08.2013 08:10 15,5 C 95 % 1019,6 hPa 0,0 l/m 0,3 km/h (0 Bft) W-NW 292 14,7 C 16,0 C 0,0 km/h (0 Bft)
19.08.2013 08:15 15,7 C 95 % 1019,6 hPa 0,0 l/m 0,5 km/h (0 Bft) W-SW 247 14,9 C 16,2 C 2,3 km/h (1 Bft)
19.08.2013 08:20 15,7 C 95 % 1019,6 hPa 0,0 l/m 0,5 km/h (0 Bft) W 270 14,9 C 16,5 C 3,4 km/h (1 Bft)
19.08.2013 08:25 15,8 C 95 % 1019,6 hPa 0,0 l/m 0,6 km/h (0 Bft) O-SO 112 15,0 C 16,7 C 0,0 km/h (0 Bft)
19.08.2013 08:30 15,9 C 95 % 1019,6 hPa 0,0 l/m 0,3 km/h (0 Bft) NO 45 15,1 C 16,8 C 0,0 km/h (0 Bft)
19.08.2013 08:35 16,3 C 94 % 1019,6 hPa 0,0 l/m 0,3 km/h (0 Bft) S-SW 202 15,3 C 17,1 C 0,0 km/h (0 Bft)
19.08.2013 08:40 16,6 C 94 % 1019,6 hPa 0,0 l/m 0,3 km/h (0 Bft) N-NO 22 15,6 C 17,7 C 0,0 km/h (0 Bft)
19.08.2013 08:45 16,6 C 94 % 1019,8 hPa 0,0 l/m 0,2 km/h (0 Bft) O-SO 112 15,6 C 18,0 C 0,0 km/h (0 Bft)
19.08.2013 08:50 16,7 C 94 % 1019,8 hPa 0,0 l/m 0,5 km/h (0 Bft) O-NO 67 15,7 C 18,2 C 0,0 km/h (0 Bft)
19.08.2013 08:55 16,8 C 94 % 1019,8 hPa 0,0 l/m 1,0 km/h (0 Bft) O 90 15,8 C 18,3 C 4,8 km/h (1 Bft)
19.08.2013 09:00 16,8 C 94 % 1019,8 hPa 0,0 l/m 1,9 km/h (1 Bft) S-SW 202 15,8 C 18,2 C 3,1 km/h (1 Bft)
19.08.2013 09:05 16,8 C 94 % 1020,3 hPa 0,0 l/m 3,2 km/h (1 Bft) S 180 15,8 C 18,1 C 6,3 km/h (2 Bft)
19.08.2013 09:10 16,8 C 94 % 1020,3 hPa 0,0 l/m 5,5 km/h (1 Bft) W-SW 247 15,8 C 18,3 C 16,6 km/h (3 Bft)
19.08.2013 09:15 16,9 C 93 % 1020,3 hPa 0,0 l/m 7,1 km/h (2 Bft) S-SO 157 15,8 C 18,2 C 13,8 km/h (3 Bft)
19.08.2013 09:20 17,0 C 93 % 1020,3 hPa 0,0 l/m 8,2 km/h (2 Bft) O-SO 112 15,9 C 17,7 C 9,2 km/h (2 Bft)
19.08.2013 09:25 16,9 C 93 % 1020,6 hPa 0,0 l/m 7,7 km/h (2 Bft) S-SO 157 15,8 C 17,7 C 13,8 km/h (3 Bft)
19.08.2013 09:30 16,7 C 93 % 1020,6 hPa 0,0 l/m 8,2 km/h (2 Bft) O-SO 112 15,6 C 17,2 C 17,7 km/h (3 Bft)
19.08.2013 09:35 16,6 C 92 % 1020,6 hPa 0,0 l/m 8,2 km/h (2 Bft) S-SO 157 15,3 C 17,1 C 17,5 km/h (3 Bft)
19.08.2013 09:40 16,6 C 92 % 1020,6 hPa 0,0 l/m 8,4 km/h (2 Bft) S 180 15,3 C 16,7 C 23,3 km/h (4 Bft)
19.08.2013 09:45 16,5 C 92 % 1021,0 hPa 0,0 l/m 8,4 km/h (2 Bft) S-SW 202 15,2 C 16,4 C 8,2 km/h (2 Bft)
19.08.2013 09:50 16,5 C 92 % 1021,0 hPa 0,0 l/m 7,6 km/h (2 Bft) S-SW 202 15,2 C 16,4 C 5,0 km/h (1 Bft)
19.08.2013 09:55 16,5 C 92 % 1021,0 hPa 0,0 l/m 5,1 km/h (1 Bft) O-SO 112 15,2 C 16,9 C 3,9 km/h (1 Bft)
19.08.2013 10:00 16,4 C 91 % 1021,0 hPa 0,0 l/m 5,0 km/h (1 Bft) SO 135 14,9 C 16,7 C 6,6 km/h (2 Bft)
19.08.2013 10:05 16,4 C 91 % 1021,1 hPa 0,0 l/m 5,0 km/h (1 Bft) S-SW 202 14,9 C 16,6 C 5,8 km/h (2 Bft)
19.08.2013 10:10 16,2 C 91 % 1021,1 hPa 0,0 l/m 3,9 km/h (1 Bft) O 90 14,7 C 16,4 C 4,8 km/h (1 Bft)
19.08.2013 10:15 16,2 C 91 % 1021,1 hPa 0,0 l/m 3,5 km/h (1 Bft) S 180 14,7 C 16,3 C 1,6 km/h (1 Bft)
19.08.2013 10:20 16,2 C 91 % 1021,1 hPa 0,0 l/m 3,1 km/h (1 Bft) S-SO 157 14,7 C 16,2 C 4,8 km/h (1 Bft)
19.08.2013 10:25 16,2 C 92 % 1021,2 hPa 0,0 l/m 2,1 km/h (1 Bft) O-SO 112 14,9 C 16,2 C 1,6 km/h (1 Bft)
19.08.2013 10:30 16,2 C 92 % 1021,2 hPa 0,0 l/m 1,6 km/h (1 Bft) O 90 14,9 C 16,2 C 2,7 km/h (1 Bft)
19.08.2013 10:35 16,1 C 92 % 1021,2 hPa 0,0 l/m 2,3 km/h (1 Bft) O-SO 112 14,8 C 16,1 C 4,3 km/h (1 Bft)
19.08.2013 10:40 16,1 C 92 % 1021,2 hPa 0,0 l/m 2,1 km/h (1 Bft) O-SO 112 14,8 C 16,1 C 0,0 km/h (0 Bft)
19.08.2013 10:45 16,1 C 92 % 1021,2 hPa 0,7 l/m 0,8 km/h (0 Bft) O-NO 67 14,8 C 16,1 C 0,0 km/h (0 Bft)
19.08.2013 10:50 15,9 C 93 % 1021,2 hPa 0,0 l/m 0,6 km/h (0 Bft) S 180 14,8 C 16,0 C 0,0 km/h (0 Bft)
19.08.2013 10:55 15,9 C 93 % 1021,2 hPa 0,0 l/m 0,5 km/h (0 Bft) S-SO 157 14,8 C 16,0 C 0,0 km/h (0 Bft)
19.08.2013 11:00 15,9 C 93 % 1021,2 hPa 0,0 l/m 1,1 km/h (1 Bft) S-SO 157 14,8 C 16,0 C 6,3 km/h (2 Bft)
19.08.2013 11:05 15,7 C 94 % 1021,2 hPa 0,0 l/m 1,3 km/h (1 Bft) O-SO 112 14,7 C 15,8 C 0,0 km/h (0 Bft)
19.08.2013 11:10 15,6 C 94 % 1021,2 hPa 0,7 l/m 1,4 km/h (1 Bft) O-NO 67 14,6 C 15,7 C 0,0 km/h (0 Bft)
19.08.2013 11:15 15,5 C 93 % 1021,2 hPa 0,0 l/m 1,0 km/h (0 Bft) O 90 14,4 C 15,6 C 1,9 km/h (1 Bft)
19.08.2013 11:20 15,3 C 94 % 1021,2 hPa 0,0 l/m 1,8 km/h (1 Bft) O-SO 112 14,3 C 15,5 C 7,4 km/h (2 Bft)
19.08.2013 11:25 15,2 C 94 % 1021,4 hPa 0,7 l/m 2,9 km/h (1 Bft) NO 45 14,2 C 15,3 C 6,1 km/h (2 Bft)
19.08.2013 11:30 15,0 C 94 % 1021,4 hPa 0,0 l/m 2,7 km/h (1 Bft) SO 135 14,0 C 15,2 C 2,6 km/h (1 Bft)
19.08.2013 11:35 15,0 C 94 % 1021,4 hPa 0,7 l/m 1,9 km/h (1 Bft) S-SW 202 14,0 C 15,2 C 1,8 km/h (1 Bft)
19.08.2013 11:40 15,1 C 94 % 1021,4 hPa 0,0 l/m 1,4 km/h (1 Bft) N-NW 337 14,1 C 15,1 C 0,0 km/h (0 Bft)
19.08.2013 11:45 15,1 C 94 % 1021,2 hPa 0,0 l/m 1,1 km/h (1 Bft) W 270 14,1 C 15,2 C 3,7 km/h (1 Bft)
19.08.2013 11:50 15,1 C 94 % 1021,2 hPa 0,0 l/m 1,0 km/h (0 Bft) SO 135 14,1 C 15,2 C 0,0 km/h (0 Bft)
19.08.2013 11:55 15,1 C 94 % 1021,2 hPa 0,7 l/m 1,6 km/h (1 Bft) NO 45 14,1 C 15,2 C 2,3 km/h (1 Bft)
19.08.2013 12:00 15,2 C 94 % 1021,2 hPa 0,0 l/m 2,3 km/h (1 Bft) SO 135 14,2 C 15,2 C 5,1 km/h (1 Bft)
19.08.2013 12:05 15,2 C 94 % 1021,0 hPa 0,0 l/m 1,8 km/h (1 Bft) W 270 14,2 C 15,2 C 2,1 km/h (1 Bft)
19.08.2013 12:10 15,3 C 94 % 1021,0 hPa 0,7 l/m 0,8 km/h (0 Bft) W 270 14,3 C 15,4 C 0,0 km/h (0 Bft)
19.08.2013 12:15 15,2 C 94 % 1021,0 hPa 0,0 l/m 0,6 km/h (0 Bft) S 180 14,2 C 15,4 C 0,0 km/h (0 Bft)
19.08.2013 12:20 15,2 C 94 % 1021,0 hPa 0,0 l/m 0,6 km/h (0 Bft) O-SO 112 14,2 C 15,3 C 2,4 km/h (1 Bft)
19.08.2013 12:25 15,2 C 94 % 1021,0 hPa 0,0 l/m 0,6 km/h (0 Bft) N-NO 22 14,2 C 15,4 C 3,1 km/h (1 Bft)
19.08.2013 12:30 15,3 C 94 % 1021,0 hPa 0,7 l/m 1,4 km/h (1 Bft) S 180 14,3 C 15,4 C 2,6 km/h (1 Bft)
19.08.2013 12:35 15,4 C 94 % 1021,0 hPa 0,0 l/m 1,3 km/h (1 Bft) O-NO 67 14,4 C 15,4 C 0,0 km/h (0 Bft)
19.08.2013 12:40 15,3 C 94 % 1021,0 hPa 0,0 l/m 1,1 km/h (1 Bft) N-NO 22 14,3 C 15,5 C 0,0 km/h (0 Bft)
19.08.2013 12:45 15,3 C 94 % 1020,8 hPa 0,0 l/m 1,0 km/h (0 Bft) O-NO 67 14,3 C 15,5 C 1,9 km/h (1 Bft)
19.08.2013 12:50 15,4 C 94 % 1020,8 hPa 0,7 l/m 0,8 km/h (0 Bft) O-SO 112 14,4 C 15,6 C 1,6 km/h (1 Bft)
19.08.2013 12:55 15,6 C 94 % 1020,8 hPa 0,0 l/m 0,6 km/h (0 Bft) N-NO 22 14,6 C 15,7 C 0,0 km/h (0 Bft)
19.08.2013 13:00 15,8 C 94 % 1020,8 hPa 0,0 l/m 0,6 km/h (0 Bft) O-SO 112 14,8 C 16,0 C 0,0 km/h (0 Bft)
19.08.2013 13:05 16,1 C 93 % 1020,9 hPa 0,0 l/m 0,8 km/h (0 Bft) W-SW 247 15,0 C 16,1 C 2,3 km/h (1 Bft)
19.08.2013 13:10 16,4 C 93 % 1020,9 hPa 0,0 l/m 0,8 km/h (0 Bft) W-SW 247 15,3 C 16,4 C 2,9 km/h (1 Bft)
19.08.2013 13:15 16,3 C 93 % 1020,9 hPa 0,0 l/m 0,8 km/h (0 Bft) O 90 15,2 C 16,5 C 1,8 km/h (1 Bft)
19.08.2013 13:20 16,2 C 93 % 1020,9 hPa 0,0 l/m 1,3 km/h (1 Bft) NO 45 15,1 C 16,6 C 3,1 km/h (1 Bft)
19.08.2013 13:25 16,3 C 93 % 1020,8 hPa 0,0 l/m 1,0 km/h (0 Bft) O 90 15,2 C 16,8 C 2,4 km/h (1 Bft)
19.08.2013 13:30 16,4 C 93 % 1020,8 hPa 0,0 l/m 0,6 km/h (0 Bft) NO 45 15,3 C 17,0 C 1,8 km/h (1 Bft)
19.08.2013 13:35 16,6 C 93 % 1020,8 hPa 0,0 l/m 0,3 km/h (0 Bft) O-NO 67 15,5 C 17,2 C 0,0 km/h (0 Bft)
19.08.2013 13:40 16,7 C 93 % 1020,8 hPa 0,0 l/m 0,2 km/h (0 Bft) O-SO 112 15,6 C 17,4 C 0,0 km/h (0 Bft)
19.08.2013 13:45 16,8 C 93 % 1020,7 hPa 0,0 l/m 0,2 km/h (0 Bft) N 360 15,7 C 17,5 C 0,0 km/h (0 Bft)
19.08.2013 13:50 16,9 C 93 % 1020,7 hPa 0,0 l/m 0,2 km/h (0 Bft) N-NO 22 15,8 C 17,6 C 0,0 km/h (0 Bft)
19.08.2013 13:55 16,7 C 93 % 1020,7 hPa 0,0 l/m 0,2 km/h (0 Bft) S 180 15,6 C 17,6 C 0,0 km/h (0 Bft)
19.08.2013 14:00 16,9 C 93 % 1020,7 hPa 0,0 l/m 0,3 km/h (0 Bft) S 180 15,8 C 17,4 C 0,0 km/h (0 Bft)
19.08.2013 14:05 16,8 C 93 % 1020,2 hPa 0,0 l/m 0,3 km/h (0 Bft) W-SW 247 15,7 C 17,4 C 0,0 km/h (0 Bft)
19.08.2013 14:10 16,7 C 93 % 1020,2 hPa 0,0 l/m 0,3 km/h (0 Bft) O-NO 67 15,6 C 17,5 C 0,0 km/h (0 Bft)
19.08.2013 14:15 17,2 C 92 % 1020,2 hPa 0,0 l/m 0,3 km/h (0 Bft) O-SO 112 15,9 C 17,6 C 1,8 km/h (1 Bft)
19.08.2013 14:20 17,1 C 92 % 1020,2 hPa 0,0 l/m 0,8 km/h (0 Bft) NO 45 15,8 C 17,9 C 4,3 km/h (1 Bft)
19.08.2013 14:25 17,0 C 92 % 1020,5 hPa 0,0 l/m 0,8 km/h (0 Bft) SO 135 15,7 C 18,0 C 0,0 km/h (0 Bft)
19.08.2013 14:30 16,7 C 93 % 1020,5 hPa 0,0 l/m 0,8 km/h (0 Bft) N-NO 22 15,6 C 17,6 C 0,0 km/h (0 Bft)
19.08.2013 14:35 16,6 C 92 % 1020,5 hPa 0,0 l/m 0,3 km/h (0 Bft) W 270 15,3 C 17,4 C 0,0 km/h (0 Bft)
19.08.2013 14:40 16,4 C 93 % 1020,5 hPa 0,0 l/m 0,8 km/h (0 Bft) S-SO 157 15,3 C 16,8 C 0,0 km/h (0 Bft)
19.08.2013 14:45 16,2 C 92 % 1020,4 hPa 0,0 l/m 0,8 km/h (0 Bft) NO 45 14,9 C 16,6 C 0,0 km/h (0 Bft)
19.08.2013 14:50 15,9 C 94 % 1020,4 hPa 0,7 l/m 0,6 km/h (0 Bft) NO 45 14,9 C 16,3 C 0,0 km/h (0 Bft)
19.08.2013 14:55 15,9 C 94 % 1020,4 hPa 0,0 l/m 0,6 km/h (0 Bft) N-NW 337 14,9 C 16,2 C 0,0 km/h (0 Bft)
19.08.2013 15:00 15,7 C 94 % 1020,4 hPa 0,0 l/m 0,3 km/h (0 Bft) NO 45 14,7 C 16,1 C 1,6 km/h (1 Bft)
19.08.2013 15:05 15,6 C 94 % 1020,2 hPa 0,0 l/m 0,3 km/h (0 Bft) O 90 14,6 C 16,0 C 0,0 km/h (0 Bft)
19.08.2013 15:10 15,5 C 94 % 1020,2 hPa 0,0 l/m 0,2 km/h (0 Bft) O-SO 112 14,5 C 15,8 C 0,0 km/h (0 Bft)
19.08.2013 15:15 15,5 C 94 % 1020,2 hPa 0,0 l/m 0,3 km/h (0 Bft) NO 45 14,5 C 15,7 C 2,1 km/h (1 Bft)
19.08.2013 15:20 15,4 C 94 % 1020,2 hPa 0,7 l/m 0,5 km/h (0 Bft) O 90 14,4 C 15,6 C 0,0 km/h (0 Bft)
19.08.2013 15:25 15,3 C 94 % 1019,9 hPa 0,0 l/m 0,8 km/h (0 Bft) NO 45 14,3 C 15,5 C 1,9 km/h (1 Bft)
19.08.2013 15:30 15,3 C 94 % 1019,9 hPa 0,0 l/m 1,1 km/h (1 Bft) NO 45 14,3 C 15,5 C 1,6 km/h (1 Bft)
19.08.2013 15:35 15,2 C 94 % 1019,9 hPa 0,0 l/m 0,8 km/h (0 Bft) O-SO 112 14,2 C 15,4 C 0,0 km/h (0 Bft)
19.08.2013 15:40 15,3 C 94 % 1019,9 hPa 0,0 l/m 0,2 km/h (0 Bft) S-SO 157 14,3 C 15,5 C 0,0 km/h (0 Bft)
19.08.2013 15:45 15,4 C 94 % 1020,4 hPa 0,0 l/m 0,5 km/h (0 Bft) SO 135 14,4 C 15,5 C 1,9 km/h (1 Bft)
19.08.2013 15:50 15,1 C 94 % 1020,4 hPa 0,0 l/m 2,9 km/h (1 Bft) S-SO 157 14,1 C 15,3 C 5,3 km/h (1 Bft)
19.08.2013 15:55 14,9 C 94 % 1020,4 hPa 0,0 l/m 3,9 km/h (1 Bft) S-SW 202 13,9 C 15,1 C 3,4 km/h (1 Bft)
19.08.2013 16:00 15,0 C 94 % 1020,4 hPa 0,0 l/m 3,4 km/h (1 Bft) S 180 14,0 C 15,0 C 4,5 km/h (1 Bft)
19.08.2013 16:05 15,1 C 94 % 1020,2 hPa 0,0 l/m 2,6 km/h (1 Bft) S-SW 202 14,1 C 15,0 C 3,5 km/h (1 Bft)
19.08.2013 16:10 15,1 C 94 % 1020,2 hPa 0,0 l/m 1,9 km/h (1 Bft) S 180 14,1 C 15,1 C 4,2 km/h (1 Bft)
19.08.2013 16:15 15,0 C 94 % 1020,2 hPa 0,0 l/m 2,7 km/h (1 Bft) S-SO 157 14,0 C 15,0 C 5,3 km/h (1 Bft)
19.08.2013 16:20 15,1 C 94 % 1020,2 hPa 0,0 l/m 2,6 km/h (1 Bft) W-SW 247 14,1 C 15,0 C 2,6 km/h (1 Bft)
19.08.2013 16:25 15,0 C 94 % 1020,6 hPa 0,0 l/m 1,1 km/h (1 Bft) O-NO 67 14,0 C 15,2 C 0,0 km/h (0 Bft)
19.08.2013 16:30 14,9 C 94 % 1020,6 hPa 0,0 l/m 0,6 km/h (0 Bft) S 180 13,9 C 15,2 C 2,9 km/h (1 Bft)
19.08.2013 16:35 14,9 C 94 % 1020,6 hPa 0,0 l/m 2,7 km/h (1 Bft) W-SW 247 13,9 C 15,2 C 10,3 km/h (2 Bft)
19.08.2013 16:40 14,6 C 94 % 1020,6 hPa 0,0 l/m 5,8 km/h (2 Bft) W-SW 247 13,6 C 15,0 C 12,4 km/h (3 Bft)
19.08.2013 16:45 14,2 C 94 % 1021,6 hPa 0,7 l/m 7,9 km/h (2 Bft) W-SW 247 13,2 C 13,5 C 14,8 km/h (3 Bft)
19.08.2013 16:50 14,1 C 94 % 1021,6 hPa 0,0 l/m 8,0 km/h (2 Bft) W-SW 247 13,1 C 13,1 C 4,7 km/h (1 Bft)
19.08.2013 16:55 14,1 C 94 % 1021,6 hPa 0,0 l/m 6,9 km/h (2 Bft) SO 135 13,1 C 13,9 C 14,5 km/h (3 Bft)
19.08.2013 17:00 13,9 C 94 % 1021,6 hPa 0,0 l/m 5,3 km/h (1 Bft) S-SO 157 12,9 C 14,3 C 4,2 km/h (1 Bft)
19.08.2013 17:05 13,7 C 94 % 1021,8 hPa 0,0 l/m 6,0 km/h (2 Bft) S 180 12,8 C 14,3 C 11,9 km/h (2 Bft)
19.08.2013 17:10 13,6 C 94 % 1021,8 hPa 0,0 l/m 6,4 km/h (2 Bft) S-SW 202 12,7 C 14,1 C 10,1 km/h (2 Bft)
19.08.2013 17:15 13,4 C 94 % 1021,8 hPa 1,4 l/m 7,4 km/h (2 Bft) SO 135 12,5 C 12,9 C 11,4 km/h (2 Bft)
19.08.2013 17:20 13,1 C 94 % 1021,8 hPa 0,7 l/m 6,8 km/h (2 Bft) SW 225 12,2 C 12,9 C 5,3 km/h (1 Bft)
19.08.2013 17:25 13,0 C 94 % 1022,4 hPa 0,0 l/m 6,1 km/h (2 Bft) SO 135 12,1 C 13,0 C 3,7 km/h (1 Bft)
19.08.2013 17:30 13,1 C 94 % 1022,4 hPa 0,0 l/m 3,9 km/h (1 Bft) S-SO 157 12,2 C 13,1 C 0,0 km/h (0 Bft)
19.08.2013 17:35 12,9 C 95 % 1022,4 hPa 0,7 l/m 3,5 km/h (1 Bft) O 90 12,1 C 13,1 C 6,6 km/h (2 Bft)
19.08.2013 17:40 12,7 C 95 % 1022,4 hPa 0,7 l/m 3,4 km/h (1 Bft) O-SO 112 11,9 C 12,9 C 4,0 km/h (1 Bft)
19.08.2013 17:45 12,6 C 95 % 1022,6 hPa 0,0 l/m 2,9 km/h (1 Bft) SO 135 11,8 C 12,7 C 3,1 km/h (1 Bft)
19.08.2013 17:50 12,8 C 95 % 1022,6 hPa 0,0 l/m 1,8 km/h (1 Bft) NO 45 12,0 C 12,7 C 2,1 km/h (1 Bft)
19.08.2013 17:55 12,8 C 95 % 1022,6 hPa 0,7 l/m 1,1 km/h (1 Bft) S-SW 202 12,0 C 12,8 C 2,6 km/h (1 Bft)
19.08.2013 18:00 12,9 C 95 % 1022,6 hPa 0,0 l/m 1,0 km/h (0 Bft) S-SO 157 12,1 C 12,9 C 0,0 km/h (0 Bft)
19.08.2013 18:05 13,0 C 94 % 1022,6 hPa 0,0 l/m 0,5 km/h (0 Bft) N-NO 22 12,1 C 12,9 C 1,6 km/h (1 Bft)
19.08.2013 18:10 12,9 C 95 % 1022,6 hPa 0,7 l/m 0,5 km/h (0 Bft) O-SO 112 12,1 C 13,0 C 2,4 km/h (1 Bft)
19.08.2013 18:15 12,8 C 95 % 1022,6 hPa 0,0 l/m 1,0 km/h (0 Bft) O-SO 112 12,0 C 12,9 C 2,4 km/h (1 Bft)
19.08.2013 18:20 12,8 C 95 % 1022,6 hPa 0,0 l/m 0,8 km/h (0 Bft) W 270 12,0 C 12,9 C 2,1 km/h (1 Bft)
19.08.2013 18:25 12,8 C 95 % 1022,4 hPa 0,0 l/m 0,8 km/h (0 Bft) S 180 12,0 C 12,9 C 2,6 km/h (1 Bft)
19.08.2013 18:30 12,8 C 95 % 1022,4 hPa 0,7 l/m 0,8 km/h (0 Bft) SW 225 12,0 C 12,8 C 0,0 km/h (0 Bft)
19.08.2013 18:35 12,7 C 95 % 1022,4 hPa 0,0 l/m 0,6 km/h (0 Bft) NW 315 11,9 C 12,7 C 1,8 km/h (1 Bft)
19.08.2013 18:40 12,6 C 95 % 1022,4 hPa 0,0 l/m 0,5 km/h (0 Bft) S-SO 157 11,8 C 12,6 C 2,7 km/h (1 Bft)
19.08.2013 18:45 12,5 C 95 % 1022,8 hPa 0,0 l/m 1,1 km/h (1 Bft) S 180 11,7 C 12,5 C 2,1 km/h (1 Bft)
19.08.2013 18:50 12,4 C 95 % 1022,8 hPa 0,0 l/m 1,8 km/h (1 Bft) S-SO 157 11,6 C 12,4 C 3,2 km/h (1 Bft)
19.08.2013 18:55 12,4 C 95 % 1022,8 hPa 0,0 l/m 1,8 km/h (1 Bft) S-SO 157 11,6 C 12,4 C 4,3 km/h (1 Bft)
19.08.2013 19:00 12,3 C 95 % 1022,8 hPa 0,0 l/m 1,6 km/h (1 Bft) W 270 11,5 C 12,4 C 0,0 km/h (0 Bft)
19.08.2013 19:05 12,4 C 95 % 1023,1 hPa 0,0 l/m 1,1 km/h (1 Bft) O-SO 112 11,6 C 12,4 C 0,0 km/h (0 Bft)
19.08.2013 19:10 12,3 C 95 % 1023,1 hPa 0,7 l/m 0,3 km/h (0 Bft) O 90 11,5 C 12,4 C 2,9 km/h (1 Bft)
19.08.2013 19:15 12,3 C 95 % 1023,1 hPa 0,0 l/m 0,3 km/h (0 Bft) O-SO 112 11,5 C 12,3 C 0,0 km/h (0 Bft)
19.08.2013 19:20 12,3 C 95 % 1023,1 hPa 0,0 l/m 0,8 km/h (0 Bft) S 180 11,5 C 12,2 C 1,6 km/h (1 Bft)
19.08.2013 19:25 12,2 C 95 % 1023,5 hPa 0,0 l/m 0,8 km/h (0 Bft) O-NO 67 11,4 C 12,1 C 0,0 km/h (0 Bft)
19.08.2013 19:30 12,2 C 95 % 1023,5 hPa 0,0 l/m 0,6 km/h (0 Bft) S 180 11,4 C 12,1 C 2,3 km/h (1 Bft)
19.08.2013 19:35 12,2 C 95 % 1023,5 hPa 0,0 l/m 0,5 km/h (0 Bft) S 180 11,4 C 12,1 C 2,4 km/h (1 Bft)
19.08.2013 19:40 12,3 C 95 % 1023,5 hPa 0,0 l/m 1,6 km/h (1 Bft) NO 45 11,5 C 12,2 C 0,0 km/h (0 Bft)
19.08.2013 19:45 12,3 C 95 % 1023,5 hPa 0,0 l/m 1,6 km/h (1 Bft) NO 45 11,5 C 12,3 C 1,8 km/h (1 Bft)
19.08.2013 19:50 12,4 C 95 % 1023,5 hPa 0,0 l/m 0,3 km/h (0 Bft) O-SO 112 11,6 C 12,4 C 0,0 km/h (0 Bft)
19.08.2013 19:55 12,4 C 95 % 1023,5 hPa 0,0 l/m 0,2 km/h (0 Bft) NO 45 11,6 C 12,4 C 0,0 km/h (0 Bft)
19.08.2013 20:00 12,3 C 95 % 1023,5 hPa 0,0 l/m 0,0 km/h (0 Bft) S-SO 157 11,5 C 12,3 C 0,0 km/h (0 Bft)
19.08.2013 20:05 12,2 C 95 % 1023,2 hPa 0,0 l/m 0,3 km/h (0 Bft) S 180 11,4 C 12,3 C 0,0 km/h (0 Bft)
19.08.2013 20:10 12,1 C 95 % 1023,2 hPa 0,0 l/m 0,8 km/h (0 Bft) W-NW 292 11,3 C 12,1 C 3,4 km/h (1 Bft)
19.08.2013 20:15 12,1 C 95 % 1023,2 hPa 0,0 l/m 1,8 km/h (1 Bft) S-SW 202 11,3 C 12,1 C 5,3 km/h (1 Bft)
19.08.2013 20:20 12,0 C 95 % 1023,2 hPa 0,0 l/m 1,9 km/h (1 Bft) O 90 11,2 C 12,1 C 0,0 km/h (0 Bft)
19.08.2013 20:25 12,0 C 95 % 1023,7 hPa 0,0 l/m 0,6 km/h (0 Bft) O-SO 112 11,2 C 12,0 C 0,0 km/h (0 Bft)
19.08.2013 20:30 12,0 C 95 % 1023,7 hPa 0,0 l/m 0,0 km/h (0 Bft) W-NW 292 11,2 C 12,0 C 1,8 km/h (1 Bft)
19.08.2013 20:35 12,0 C 95 % 1023,7 hPa 0,0 l/m 0,6 km/h (0 Bft) SO 135 11,2 C 12,0 C 2,7 km/h (1 Bft)
19.08.2013 20:40 12,0 C 95 % 1023,7 hPa 0,0 l/m 1,8 km/h (1 Bft) SO 135 11,2 C 12,0 C 2,1 km/h (1 Bft)
19.08.2013 20:45 12,0 C 95 % 1023,9 hPa 0,0 l/m 1,6 km/h (1 Bft) NO 45 11,2 C 12,0 C 3,2 km/h (1 Bft)
19.08.2013 20:50 12,0 C 95 % 1023,9 hPa 0,0 l/m 1,1 km/h (1 Bft) S-SO 157 11,2 C 12,0 C 0,0 km/h (0 Bft)
19.08.2013 20:55 12,0 C 95 % 1023,9 hPa 0,0 l/m 0,6 km/h (0 Bft) NO 45 11,2 C 12,0 C 0,0 km/h (0 Bft)
19.08.2013 21:00 12,0 C 95 % 1023,9 hPa 0,0 l/m 0,0 km/h (0 Bft) O 90 11,2 C 12,0 C 0,0 km/h (0 Bft)
19.08.2013 21:05 12,0 C 95 % 1024,4 hPa 0,0 l/m 0,3 km/h (0 Bft) SW 225 11,2 C 12,0 C 2,1 km/h (1 Bft)
19.08.2013 21:10 12,1 C 95 % 1024,4 hPa 0,0 l/m 1,0 km/h (0 Bft) S-SO 157 11,3 C 12,1 C 0,0 km/h (0 Bft)
19.08.2013 21:15 12,1 C 95 % 1024,4 hPa 0,0 l/m 1,6 km/h (1 Bft) NO 45 11,3 C 12,1 C 5,5 km/h (1 Bft)
19.08.2013 21:20 12,1 C 95 % 1024,4 hPa 0,0 l/m 1,4 km/h (1 Bft) NO 45 11,3 C 12,1 C 2,7 km/h (1 Bft)
19.08.2013 21:25 12,0 C 95 % 1024,7 hPa 0,0 l/m 1,0 km/h (0 Bft) NO 45 11,2 C 12,0 C 2,4 km/h (1 Bft)
19.08.2013 21:30 11,9 C 96 % 1024,7 hPa 0,0 l/m 1,1 km/h (1 Bft) S 180 11,3 C 12,0 C 0,0 km/h (0 Bft)
19.08.2013 21:35 11,9 C 96 % 1024,7 hPa 0,0 l/m 1,9 km/h (1 Bft) O-SO 112 11,3 C 11,9 C 1,8 km/h (1 Bft)
19.08.2013 21:40 11,9 C 96 % 1024,7 hPa 0,0 l/m 1,3 km/h (1 Bft) S-SW 202 11,3 C 11,8 C 0,0 km/h (0 Bft)
19.08.2013 21:45 11,8 C 96 % 1024,8 hPa 0,0 l/m 0,3 km/h (0 Bft) SO 135 11,2 C 11,8 C 0,0 km/h (0 Bft)
19.08.2013 21:50 11,8 C 96 % 1024,8 hPa 0,0 l/m 0,5 km/h (0 Bft) S 180 11,2 C 11,8 C 2,6 km/h (1 Bft)
19.08.2013 21:55 11,8 C 96 % 1024,8 hPa 0,0 l/m 1,0 km/h (0 Bft) S 180 11,2 C 11,7 C 2,1 km/h (1 Bft)
19.08.2013 22:00 11,8 C 96 % 1024,8 hPa 0,0 l/m 1,6 km/h (1 Bft) W-SW 247 11,2 C 11,7 C 3,1 km/h (1 Bft)
19.08.2013 22:05 11,8 C 96 % 1024,6 hPa 0,0 l/m 1,4 km/h (1 Bft) W 270 11,2 C 11,7 C 2,6 km/h (1 Bft)
19.08.2013 22:10 11,7 C 96 % 1024,6 hPa 0,0 l/m 1,3 km/h (1 Bft) W-NW 292 11,1 C 11,7 C 1,6 km/h (1 Bft)
19.08.2013 22:15 11,7 C 96 % 1024,6 hPa 0,0 l/m 1,1 km/h (1 Bft) O 90 11,1 C 11,7 C 0,0 km/h (0 Bft)
19.08.2013 22:20 11,6 C 96 % 1024,6 hPa 0,0 l/m 0,5 km/h (0 Bft) W-SW 247 11,0 C 11,6 C 0,0 km/h (0 Bft)
19.08.2013 22:25 11,6 C 96 % 1024,9 hPa 0,0 l/m 0,3 km/h (0 Bft) NO 45 11,0 C 11,6 C 2,7 km/h (1 Bft)
19.08.2013 22:30 11,5 C 96 % 1024,9 hPa 0,0 l/m 0,5 km/h (0 Bft) NO 45 10,9 C 11,5 C 0,0 km/h (0 Bft)
19.08.2013 22:35 11,4 C 96 % 1024,9 hPa 0,0 l/m 0,3 km/h (0 Bft) O 90 10,8 C 11,4 C 0,0 km/h (0 Bft)
19.08.2013 22:40 11,4 C 96 % 1024,9 hPa 0,0 l/m 0,3 km/h (0 Bft) O 90 10,8 C 11,4 C 0,0 km/h (0 Bft)
19.08.2013 22:45 11,4 C 96 % 1024,8 hPa 0,0 l/m 0,8 km/h (0 Bft) NO 45 10,8 C 11,4 C 1,6 km/h (1 Bft)
19.08.2013 22:50 11,4 C 96 % 1024,8 hPa 0,0 l/m 1,6 km/h (1 Bft) S-SO 157 10,8 C 11,4 C 1,8 km/h (1 Bft)
19.08.2013 22:55 11,4 C 96 % 1024,8 hPa 0,0 l/m 1,1 km/h (1 Bft) S-SW 202 10,8 C 11,3 C 1,8 km/h (1 Bft)
19.08.2013 23:00 11,3 C 96 % 1024,8 hPa 0,0 l/m 0,6 km/h (0 Bft) NO 45 10,7 C 11,3 C 0,0 km/h (0 Bft)
19.08.2013 23:05 11,2 C 96 % 1025,1 hPa 0,0 l/m 0,5 km/h (0 Bft) S 180 10,6 C 11,2 C 0,0 km/h (0 Bft)
19.08.2013 23:10 11,2 C 96 % 1025,1 hPa 0,0 l/m 0,2 km/h (0 Bft) O 90 10,6 C 11,1 C 0,0 km/h (0 Bft)
19.08.2013 23:15 11,1 C 96 % 1025,1 hPa 0,0 l/m 0,2 km/h (0 Bft) W-SW 247 10,5 C 11,1 C 0,0 km/h (0 Bft)
19.08.2013 23:20 11,0 C 96 % 1025,1 hPa 0,0 l/m 0,2 km/h (0 Bft) NO 45 10,4 C 11,0 C 0,0 km/h (0 Bft)
19.08.2013 23:25 11,0 C 96 % 1025,1 hPa 0,0 l/m 0,2 km/h (0 Bft) O-NO 67 10,4 C 10,9 C 0,0 km/h (0 Bft)
19.08.2013 23:30 11,0 C 96 % 1025,1 hPa 0,0 l/m 1,8 km/h (1 Bft) N-NO 22 10,4 C 11,0 C 2,1 km/h (1 Bft)
19.08.2013 23:35 11,0 C 96 % 1025,1 hPa 0,0 l/m 1,8 km/h (1 Bft) W-SW 247 10,4 C 11,0 C 0,0 km/h (0 Bft)
19.08.2013 23:40 11,0 C 96 % 1025,1 hPa 0,0 l/m 0,5 km/h (0 Bft) N 360 10,4 C 10,9 C 0,0 km/h (0 Bft)
19.08.2013 23:45 10,9 C 96 % 1025,1 hPa 0,0 l/m 0,5 km/h (0 Bft) S 180 10,3 C 10,9 C 0,0 km/h (0 Bft)
19.08.2013 23:50 10,9 C 96 % 1025,1 hPa 0,0 l/m 1,4 km/h (1 Bft) S-SW 202 10,3 C 10,9 C 0,0 km/h (0 Bft)
19.08.2013 23:55 10,9 C 96 % 1025,1 hPa 0,0 l/m 1,3 km/h (1 Bft) NO 45 10,3 C 10,9 C 1,9 km/h (1 Bft)
_ Min-Zeit 23:55 10:20 08:00 - 21:00 - - 23:55 23:55 23:50
Minimum _ 10,9 C 91 % 1019,5 hPa - 0,0 km/h (0 Bft) - - 10,3 C 10,9 C 0,0 km/h (0 Bft)
_ Max-Zeit 14:15 23:55 23:55 17:15 09:45 - - 14:15 09:10 09:40
Maximum _ 17,2 C 96 % 1025,1 hPa 1,4 l/m 8,4 km/h
S-SW (2 Bft)
- - 15,9 C 18,3 C 23,3 km/h
S (4 Bft)
Durchschnitt _ 14,5 C 94 % 1021,5 hPa #16,5 l/m 1,4 km/h (1 Bft) NO - 13,6 C 14,6 C 2,1 km/h (1 Bft)